Tracking 28126 objects as of 1-Oct-2023
HD Live streaming from Space Station
objects crossing your sky now

COSMOS 1375 DEB

Track COSMOS 1375 DEB now!
10-day predictions


NORAD ID: 16377
Int'l Code: 1982-055R
Perigee: 861.2 km
Apogee: 924.5 km
Inclination: 65.8 °
Period: 102.7 minutes
Semi major axis: 7263 km
RCS: 0.033 m2 (small)
Launch date: June 6, 1982
Source: Commonwealth of Independent States (former USSR) (CIS)
Launch site: PLESETSK MISSILE AND SPACE COMPLEX (PKMTR)

Note: This is SATELLITE DEBRIS
Your satellite tracking list
Your tracking list is empty




NASA's NSSDC Master Catalog

Two Line Element Set (TLE):
1 16377U 82055R   23273.48225499  .00001847  00000-0  12478-2 0  9998
2 16377  65.8257  55.3168 0043597 193.8636 236.7187 14.02339548928160
Source of the keplerian elements: AFSPC